[[{"header":{"parameterUnit":"m.s-1","parameterCategory":1,"la1":30.2991,"la2":30.254,"lo1":-89.0895,"lo2":-89.0444,"dy":0.0017,"dx":0.0017,"nx":28,"ny":28,"refTime":"2024-09-29T09:00:00:Z","depth":0,"parameterNumber":2,"parameterNumberName":"U-component_of_WINDS"},"data":[0,0,0,0,0,0,0,0,0,0,0,0,0,0,0,0,0,0,0,0,0,0,0,0,0,0,0,0,0,0,0,0,0,0,0,0,0,0,0,0,0,0,0,0,0,0,0,0,0,0,0,0,0,0,0,0,0,0,0.7746,0.7746,0,0.7744,0.7744,0.7744,0.7719,0.7719,0.7718,0.7718,0.7717,0.7718,0.7718,0,0,0,0,0,0,0,0,0,0,0,0,0,0.7729,0.773,0.7746,0.7746,0.7746,0.7744,0.7744,0.7744,0.772,0.7719,0.7718,0.7717,0.7717,0.7718,0.7719,0,0,0,0,0,0,0,0,0,0,0,0,0,0.7733,0.773,0.7746,0.7733,0.7732,0.7744,0.7744,0.7744,0.772,0.7719,0.7718,0.7717,0.7717,0.7718,0.7719,0.7743,0,0,0.7721,0.7722,0,0,0,0,0,0,0,0,0.7733,0.7734,0.7735,0.7734,0.7733,0.7731,0.7738,0.7744,0.772,0.7724,0.7718,0.7716,0.7723,0.7723,0.7725,0.7743,0.7743,0.7721,0.7722,0.7722,0.7723,0,0,0,0,0,0,0,0.7733,0.7734,0.7745,0.7735,0.7734,0.7728,0.7728,0.7739,0.7729,0.7724,0.7722,0.7722,0.7722,0.7724,0.7725,0.7743,0.7721,0.7722,0.7723,0.7723,0.7783,0.7785,0,0,0,0,0,0,0.7734,0.7734,0.7745,0.7745,0.773,0.7729,0.7729,0.7733,0.7729,0.7727,0.7723,0.7721,0.7723,0.7724,0.7725,0.7754,0.7722,0.7723,0.7724,0.7782,0.7784,0.7785,0,0,0,0,0,0,0.7734,0.7735,0.7745,0.7739,0.774,0.7731,0.7735,0.7733,0.7735,0.7728,0.7726,0.7727,0.7722,0.7723,0.7739,0.7754,0.7724,0.7724,0.7781,0.7783,0.7784,0.7813,0,0,0,0,0,0,0.7733,0.7735,0.7744,0.7739,0.774,0.7759,0.7736,0.7734,0.7737,0.7734,0.7731,0.773,0.7722,0.7738,0.774,0.7755,0.7725,0.778,0.7782,0.7784,0.7811,0.7816,0.782,0,0,0,0,0,0.7733,0.7752,0.7744,0.7746,0.7751,0.776,0.7761,0.775,0.7738,0.7747,0.7743,0.773,0.7752,0.774,0.7742,0.7757,0.7779,0.7781,0.7784,0.7809,0.7815,0.782,0,0,0,0,0,0,0.7759,0.7751,0.7743,0.7761,0.7761,0.7756,0.7767,0.7756,0.7761,0.7758,0.7746,0.7745,0.7763,0.7762,0.7748,0.7782,0.7763,0.7766,0.7782,0.7787,0.7792,0.7792,0.7726,0,0,0,0,0,0.7766,0.7774,0.7767,0.7784,0.7785,0.7776,0.7779,0.7772,0.7772,0.7772,0.7769,0.777,0.7777,0.7782,0.7788,0.7811,0.7811,0.7822,0.7827,0.783,0.7833,0.7847,0.7852,0.7793,0.7793,0.7793,0,0,0.7783,0.7779,0.7785,0.7789,0.7789,0.7798,0.7776,0.7786,0.7793,0.7773,0.7788,0.7786,0.7787,0.7806,0.7815,0.7806,0.785,0.7833,0.7836,0.7837,0.785,0.7855,0.786,0.7794,0.7794,0.7794,0,0,0.7817,0.7815,0.7829,0.7829,0.7829,0.7823,0.7827,0.7823,0.7821,0.7835,0.7821,0.783,0.7842,0.7843,0.7846,0.7882,0.7871,0.7885,0.7908,0.7921,0.7926,0.793,0.7944,0.7949,0.7887,0.7888,0.7888,0,0.7837,0.785,0.7838,0.7849,0.7852,0.7835,0.785,0.7851,0.7853,0.7855,0.7845,0.7861,0.786,0.7881,0.789,0.7892,0.7896,0.7885,0.7926,0.793,0.7934,0.7947,0.7952,0.7889,0.7889,0.7889,0.7889,0,0.7875,0.7884,0.7896,0.7898,0.7903,0.7916,0.7907,0.7913,0.7905,0.7901,0.7917,0.7915,0.7921,0.7926,0.7918,0.7946,0.794,0.7928,0.7909,0.7941,0.7954,0.7959,0.7892,0.7891,0.7891,0.789,0,0,0.7925,0.7922,0.7926,0.7928,0.7927,0.7934,0.7947,0.7953,0.7959,0.7961,0.7972,0.7984,0.7973,0.7976,0.7968,0.798,0.8011,0.7966,0.7966,0.7976,0.8043,0.8052,0.8059,0.8003,0.8004,0.8005,0.8043,0,0.7959,0.7981,0.7972,0.7995,0.8004,0.7988,0.8,0.8001,0.7997,0.8005,0.8002,0.8011,0.7995,0.7997,0.8008,0.8005,0.8024,0.8002,0.8015,0.8016,0.8016,0.8065,0.8075,0.8111,0.8048,0.8049,0.8049,0,0.8002,0.8006,0.803,0.8028,0.8032,0.8042,0.8048,0.8055,0.8057,0.8054,0.8057,0.8048,0.8062,0.8043,0.8063,0.8048,0.8053,0.8053,0.8054,0.8055,0.8035,0.8069,0.8122,0.8128,0.8057,0.8056,0.8055,0,0.8037,0.8049,0.8065,0.8066,0.8065,0.8073,0.8073,0.8073,0.8078,0.8083,0.8086,0.8093,0.8097,0.8103,0.8096,0.8083,0.8117,0.8098,0.8116,0.8117,0.8125,0.8124,0.8181,0.8127,0.8126,0.8126,0.8126,0,0.8077,0.8092,0.8081,0.8091,0.8109,0.8098,0.8116,0.8114,0.8115,0.8125,0.8112,0.8122,0.8112,0.8121,0.8116,0.8134,0.8136,0.8135,0.8133,0.8136,0.8137,0.814,0.8138,0.8128,0.8127,0.8127,0.8127,0,0.8119,0.8112,0.8129,0.8126,0.8126,0.8139,0.8138,0.8147,0.8143,0.8157,0.8159,0.8154,0.8164,0.8158,0.8168,0.8165,0.8189,0.8184,0.8189,0.8187,0.8207,0.8206,0.8268,0.8276,0.8216,0.8216,0.8217,0,0.8145,0.8157,0.8156,0.8161,0.8162,0.8172,0.8176,0.8167,0.8173,0.8176,0.8186,0.8196,0.8203,0.8221,0.8218,0.8227,0.8222,0.8243,0.8223,0.8227,0.8224,0.8224,0.8226,0.8248,0.8248,0.8249,0.8249,0,0.8192,0.8188,0.8196,0.8202,0.8209,0.8213,0.8217,0.8223,0.8214,0.8221,0.8232,0.8237,0.8249,0.8259,0.8267,0.8267,0.8258,0.8256,0.8261,0.8264,0.8267,0.8267,0.8201,0.8254,0.8254,0.8254,0.8253,0.8253,0.8228,0.8238,0.8239,0.8248,0.825,0.8255,0.8264,0.8262,0.827,0.8279,0.8273,0.8286,0.8289,0.8298,0.83,0.8311,0.8303,0.831,0.8312,0.8314,0.8317,0.8265,0.8312,0.8312,0.8312,0.8312,0.8312,0,0.8275,0.8276,0.8284,0.829,0.8298,0.8287,0.8291,0.8298,0.831,0.8313,0.8321,0.8334,0.8344,0.8343,0.8352,0.8362,0.8357,0.8365,0.8364,0.8365,0.8323,0.8319,0.8368,0.8368,0.8368,0.8368,0.8368,0.8368,0.8301,0.8318,0.8315,0.8334,0.8334,0.8347,0.835,0.8354,0.8357,0.8372,0.8381,0.838,0.8381,0.8391,0.8401,0.84,0.8405,0.8414,0.8412,0.8373,0.8368,0.8362,0.8358,0.8415,0.8415,0.8453,0.8453,0.8454]},{"header":{"parameterUnit":"m.s-1","parameterCategory":1,"la1":30.2991,"la2":30.254,"lo1":-89.0895,"lo2":-89.0444,"dy":0.0017,"dx":0.0017,"nx":28,"ny":28,"refTime":"2024-09-29T09:00:00:Z","depth":0,"parameterNumber":3,"parameterNumberName":"V-component_of_WINDS"},"data":[0,0,0,0,0,0,0,0,0,0,0,0,0,0,0,0,0,0,0,0,0,0,0,0,0,0,0,0,0,0,0,0,0,0,0,0,0,0,0,0,0,0,0,0,0,0,0,0,0,0,0,0,0,0,0,0,0,0,0.374,0.374,0,0.3759,0.3759,0.3759,0.3769,0.3769,0.3769,0.3769,0.3788,0.3789,0.3789,0,0,0,0,0,0,0,0,0,0,0,0,0,0.3712,0.3713,0.374,0.374,0.374,0.3759,0.3759,0.3759,0.3769,0.3769,0.3769,0.3769,0.3788,0.3789,0.3789,0,0,0,0,0,0,0,0,0,0,0,0,0,0.3727,0.3713,0.374,0.3747,0.3748,0.3759,0.3759,0.3759,0.3769,0.3769,0.3769,0.3769,0.3788,0.3789,0.379,0.3795,0,0,0.3792,0.3792,0,0,0,0,0,0,0,0,0.3726,0.3728,0.3746,0.3747,0.3748,0.3761,0.3757,0.3771,0.3769,0.3761,0.3769,0.3769,0.3779,0.3781,0.3785,0.3796,0.3796,0.3792,0.3793,0.3793,0.3793,0,0,0,0,0,0,0,0.3725,0.3727,0.3747,0.3746,0.3747,0.375,0.3752,0.3759,0.377,0.3761,0.3762,0.3764,0.378,0.3784,0.3785,0.3797,0.3792,0.3793,0.3793,0.3794,0.3813,0.3813,0,0,0,0,0,0,0.3723,0.3726,0.3747,0.3748,0.3737,0.375,0.3752,0.3757,0.377,0.3772,0.3764,0.3765,0.3782,0.3784,0.3786,0.3793,0.3793,0.3794,0.3794,0.3813,0.3813,0.3813,0,0,0,0,0,0,0.3722,0.3724,0.3746,0.3737,0.374,0.3751,0.3756,0.3757,0.3761,0.3772,0.3774,0.3766,0.3782,0.3785,0.3792,0.3794,0.3794,0.3795,0.3813,0.3813,0.3813,0.3807,0,0,0,0,0,0,0.3721,0.3724,0.3726,0.3737,0.3741,0.3752,0.3756,0.3758,0.3762,0.3763,0.3774,0.3776,0.3783,0.3791,0.3793,0.3795,0.3795,0.3813,0.3813,0.3813,0.3807,0.3806,0.3806,0,0,0,0,0,0.372,0.3723,0.3726,0.3729,0.3743,0.3752,0.3754,0.3761,0.3762,0.3765,0.3772,0.3776,0.3793,0.3792,0.3794,0.3796,0.3813,0.3813,0.3813,0.3807,0.3806,0.3806,0,0,0,0,0,0,0.3712,0.3725,0.3728,0.3735,0.3742,0.3754,0.3757,0.3761,0.3768,0.3768,0.3777,0.378,0.3787,0.3792,0.379,0.3802,0.3803,0.3804,0.3798,0.3798,0.3797,0.3796,0.3796,0,0,0,0,0,0.3711,0.3717,0.3728,0.3733,0.3737,0.3746,0.375,0.3755,0.3763,0.3766,0.3774,0.3782,0.3789,0.3794,0.3801,0.3808,0.381,0.381,0.381,0.3809,0.381,0.3814,0.3814,0.3814,0.3814,0.3814,0,0,0.3709,0.3717,0.372,0.3732,0.3738,0.3744,0.3749,0.3755,0.376,0.3767,0.3775,0.3781,0.379,0.3798,0.3801,0.3802,0.381,0.3809,0.3809,0.381,0.3814,0.3814,0.3814,0.3814,0.3814,0.3814,0,0,0.3709,0.3716,0.3721,0.3727,0.3736,0.3742,0.3743,0.3754,0.3758,0.3766,0.3772,0.3778,0.379,0.3797,0.3802,0.3804,0.3808,0.3806,0.3804,0.3808,0.3808,0.3809,0.381,0.381,0.3806,0.3806,0.3806,0,0.3706,0.3715,0.3723,0.3729,0.3734,0.3741,0.3746,0.3752,0.3763,0.3767,0.3768,0.3783,0.379,0.3799,0.38,0.3803,0.3805,0.3805,0.3808,0.3808,0.3808,0.3809,0.381,0.3806,0.3806,0.3806,0.3806,0,0.3711,0.3717,0.372,0.3731,0.3736,0.3742,0.375,0.3755,0.3759,0.3765,0.3773,0.3782,0.3791,0.3793,0.3798,0.3803,0.3803,0.3806,0.3808,0.3808,0.3809,0.3809,0.3806,0.3806,0.3806,0.3806,0,0,0.3706,0.3721,0.3722,0.3727,0.3738,0.3743,0.3749,0.3758,0.3762,0.3769,0.3775,0.3785,0.3787,0.3793,0.3798,0.3802,0.3803,0.3804,0.3804,0.3804,0.381,0.3808,0.3808,0.3806,0.3806,0.3806,0.3809,0,0.3707,0.3718,0.3725,0.3734,0.374,0.3747,0.3752,0.376,0.3765,0.3772,0.3778,0.3785,0.3788,0.3791,0.3795,0.3802,0.3805,0.3802,0.3812,0.3812,0.3809,0.3809,0.3807,0.3809,0.381,0.381,0.381,0,0.3711,0.3718,0.3727,0.3737,0.374,0.3745,0.3753,0.3759,0.3768,0.3772,0.3778,0.3783,0.379,0.3792,0.3802,0.38,0.3804,0.3808,0.3808,0.381,0.3811,0.381,0.381,0.381,0.3811,0.3811,0.381,0,0.3706,0.3719,0.3726,0.373,0.3742,0.3745,0.375,0.3759,0.3764,0.3772,0.3775,0.3783,0.3788,0.3794,0.3802,0.3802,0.3811,0.3813,0.3815,0.3815,0.3817,0.3816,0.3817,0.3819,0.3819,0.3819,0.3819,0,0.3707,0.3713,0.3724,0.3728,0.3734,0.3742,0.3748,0.3754,0.3762,0.3768,0.3774,0.3779,0.3789,0.3795,0.3801,0.3809,0.3811,0.3814,0.3816,0.3814,0.3814,0.3817,0.3817,0.3819,0.3819,0.3819,0.3819,0,0.3704,0.3712,0.372,0.3731,0.3734,0.3738,0.3747,0.3752,0.3758,0.3765,0.3767,0.3777,0.3785,0.3793,0.3804,0.3808,0.3815,0.3817,0.3812,0.3813,0.3815,0.3815,0.3818,0.3819,0.382,0.382,0.382,0,0.3704,0.3708,0.372,0.3724,0.3729,0.3736,0.3741,0.3749,0.3754,0.3764,0.3768,0.3776,0.3783,0.3796,0.3804,0.3813,0.3815,0.3816,0.3816,0.3814,0.3815,0.3815,0.3816,0.3815,0.3815,0.3815,0.3815,0,0.3704,0.3707,0.3714,0.3723,0.3728,0.3735,0.3743,0.3746,0.3755,0.3761,0.3769,0.3774,0.3786,0.3794,0.3803,0.3809,0.3814,0.3815,0.3816,0.3814,0.3811,0.3813,0.3812,0.3815,0.3815,0.3815,0.3815,0.3815,0.3702,0.3707,0.3715,0.3723,0.3729,0.3736,0.374,0.3747,0.3754,0.3764,0.3768,0.3776,0.3785,0.3798,0.3804,0.3811,0.3812,0.3813,0.3814,0.3814,0.3813,0.381,0.3812,0.3812,0.3813,0.3813,0.3813,0,0.3703,0.3708,0.3715,0.3725,0.3731,0.3735,0.3743,0.3748,0.3755,0.3763,0.377,0.3779,0.3787,0.3796,0.3805,0.3809,0.3811,0.3811,0.3811,0.3812,0.3812,0.381,0.3809,0.3809,0.3809,0.3809,0.3809,0.3809,0.3703,0.371,0.3715,0.3726,0.3732,0.374,0.3744,0.375,0.3756,0.3767,0.3774,0.3779,0.3788,0.3797,0.3805,0.3807,0.381,0.3809,0.3813,0.3812,0.3812,0.3812,0.3811,0.381,0.381,0.3812,0.3812,0.3812]}]]